Retour au catalogue

KUIPER-00015

ActifCommunicationsLEO
NORAD 63731·PAYLOAD·🇺🇸 United States

Lancé Apr 28, 2025 depuis Cape Canaveral Space Force Station

Loading…

Prochains Passages (prochaines 24 heures)

TLE

FraisSource: CelesTrak SupGP

Époque: Sep 15, 2026, 01:33 UTC

1 63731C 25088H   26258.06498843  .00001540  00000+0  20158-3 0  2584
2 63731  51.9000   0.6942 0000318 112.9413 287.9369 14.79930932    13

Suivez KUIPER-00015 en temps réel avec AllMySat

Download on the App Store